BEIDOU-3S IGSO-2S

Last updated on Mon Nov 03 2025 00:02:58 GMT+0000 (Coordinated Universal Time)

1 40938U 15053A 25306.34308095 -.00000161 00000+0 00000+0 0 9993 2 40938 49.5787 261.4847 0061511 189.4096 170.4515 1.00279199 37088
UTC large
Height (km)
Speed (km/s)
/
Latitude / Longitude
Inclination (degrees)
Orbital Period (minutes)
Azimuth
Elevation
Range (km)
Doppler Factor

Next 0 passes for location: London (51.5072 / 0.1276)

Sorry there are no passes over London.